Location: Ash Swamp
(41.5170°N, 74.6157°W)
Time: 02:20:31
(UTC+00:00)

Terra - Pass Details

Date: 14 July 2020
Orbit: 701 x 703 km, 98.2° (Epoch: 14 August)

Event Time Altitude Azimuth Distance (km) Brightness Sun altitude
Exits shadow 02:18:27 25° 116° (ESE) 1,410 2.8 -16.1°
Maximum altitude 02:20:30 37° 70° (ENE) 1,096 2.6 -16.3°
Drops below altitude 10° 02:24:52 10° 4° (N) 2,179 5.0 -16.9°
Sets 02:27:15 0° 356° (N) 3,101 6.1 -17.1°
